Location: Unspecified
(0.0000°N, 0.0000°E)
Time: 16:29:27
(UTC+00:00)

Tiangong 2 - Visible Passes

Search period start: 27 July 2017 00:00
Search period end: 06 August 2017 00:00
Orbit: 391 x 394 km, 42.8° (Epoch: 26 July)

Date Brightness Start Highest point End Pass type
(mag) Time Alt. Az. Time Alt. Az. Time Alt. Az.
03 Aug 2.4 19:26:30 10° NNW 19:28:47 30° NNE 19:28:47 30° NNE visible
04 Aug 3.3 18:30:45 10° N 18:32:34 14° NE 18:34:22 10° E visible
04 Aug 4.3 20:06:42 10° W 20:07:27 14° W 20:07:27 14° W visible
05 Aug 1.4 19:09:18 10° NW 19:12:28 63° SW 19:13:45 31° SSE visible
